Weather History for Pampa / Mesa Vista, TX

Change the Weather History Date:

Wednesday, November 7, 2012

  Actual Average (KBGD) Record (KBGD)
Temperature  
Mean Temperature 60 °F 52 °F  
Max Temperature 82 °F 65 °F 85 °F (2009)
Min Temperature 37 °F 39 °F 21 °F (1991)
Degree Days  
Heating Degree Days 6 13  
Month to date heating degree days 84  
Since 1 July heating degree days 305  
Cooling Degree Days 0 0  
Month to date cooling degree days 0  
Year to date cooling degree days 1835  
Growing Degree Days 10 (Base 50)    
Moisture  
Dew Point 35 °F    
Average Humidity 46    
Maximum Humidity 81    
Minimum Humidity 16    
Precipitation  
Precipitation 0.00 in 0.03 in 0.41 in (1987)
Month to date precipitation 0.25  
Year to date precipitation 20.36  
Snow  
Snow 0.00 in - 4.00 in (2000)
Month to date snowfall  
Since 1 July snowfall  
Since 1 September snowfall  
Snow Depth -    
Sea Level Pressure  
Sea Level Pressure 30.06 in    
Wind  
Wind Speed 9 mph (SSW)    
Max Wind Speed 25 mph    
Max Gust Speed 32 mph    
Visibility 10 miles    
Events      
T = Trace of Precipitation, MM = Missing Value Source: NWS Daily Summary

Daily Weather History Graph

Daily Weather History Graph

Search for Another Location

Airport:

Trip Planner

Search our weather history database for the weather conditions in past years. The results will help you decide how hot, cold, wet, or windy it might be!

Date:

Astronomy

Nov. 07, 2012 Rise Set
Actual Time 7:12 AM CST 5:42 PM CST
Civil Twilight 6:46 AM CST 6:09 PM CST
Nautical Twilight 6:15 AM CST 6:39 PM CST
Astronomical Twilight 5:45 AM CST 7:09 PM CST
Moon 12:21 AM CST (11/7) 1:40 PM CST (11/7)
Length of Visible Light 11h 23m
Length of Day
10h 29m
Last Quarter, 43% of the Moon is Illuminated
Nov 7
Last Quarter
Nov 13
New
Nov 20
First Quarter
Nov 28
Full
Dec 6
Last Quarter

Hourly Weather History & Observations

Time (CST) Temp. Windchill Dew Point Humidity Pressure Visibility Wind Dir Wind Speed Gust Speed Precip Events Conditions
12:15 AM 44.6 °F 43.1 °F 33.8 °F 66% 30.20 in 10.0 mi West 3.5 mph - N/A   Clear
12:35 AM 42.8 °F - 33.8 °F 70% 30.20 in 10.0 mi Calm Calm - N/A   Clear
12:55 AM 41.0 °F - 32.0 °F 70% 30.20 in 10.0 mi Calm Calm - N/A   Clear
1:15 AM 39.2 °F 35.0 °F 32.0 °F 75% 30.20 in 10.0 mi SW 5.8 mph - N/A   Clear
1:35 AM 41.0 °F 37.1 °F 32.0 °F 70% 30.20 in 10.0 mi WSW 5.8 mph - N/A   Clear
1:55 AM 42.8 °F 40.1 °F 32.0 °F 66% 30.20 in 10.0 mi WSW 4.6 mph - N/A   Clear
2:15 AM 39.2 °F 35.0 °F 32.0 °F 75% 30.20 in 10.0 mi WSW 5.8 mph - N/A   Clear
2:35 AM 37.4 °F 31.4 °F 32.0 °F 81% 30.19 in 10.0 mi SW 8.1 mph - N/A   Clear
2:55 AM 41.0 °F 38.0 °F 32.0 °F 70% 30.19 in 10.0 mi SW 4.6 mph - N/A   Clear
3:15 AM 39.2 °F 34.2 °F 32.0 °F 75% 30.19 in 10.0 mi SW 6.9 mph - N/A   Clear
3:35 AM 39.2 °F - 32.0 °F 75% 30.18 in 10.0 mi Calm Calm - N/A   Clear
3:55 AM 41.0 °F 35.8 °F 32.0 °F 70% 30.18 in 10.0 mi WSW 8.1 mph - N/A   Clear
4:15 AM 41.0 °F 37.1 °F 32.0 °F 70% 30.17 in 10.0 mi WSW 5.8 mph - N/A   Clear
4:35 AM 37.4 °F 32.1 °F 32.0 °F 81% 30.17 in 10.0 mi WSW 6.9 mph - N/A   Clear
4:55 AM 39.2 °F 34.2 °F 32.0 °F 75% 30.17 in 10.0 mi SW 6.9 mph - N/A   Clear
5:35 AM 39.2 °F 37.0 °F 32.0 °F 75% 30.17 in 10.0 mi SW 3.5 mph - N/A   Clear
5:55 AM 39.2 °F 35.0 °F 32.0 °F 75% 30.16 in 10.0 mi WSW 5.8 mph - N/A   Clear
6:15 AM 37.4 °F 33.8 °F 32.0 °F 81% 30.16 in 10.0 mi WSW 4.6 mph - N/A   Clear
6:35 AM 39.2 °F 37.0 °F 32.0 °F 75% 30.16 in 10.0 mi WSW 3.5 mph - N/A   Clear
6:55 AM 39.2 °F 35.0 °F 32.0 °F 75% 30.16 in 10.0 mi WSW 5.8 mph - N/A   Clear
7:15 AM 37.4 °F 32.1 °F 32.0 °F 81% 30.16 in 10.0 mi SW 6.9 mph - N/A   Clear
7:35 AM 41.0 °F 36.4 °F 32.0 °F 70% 30.17 in 10.0 mi SSW 6.9 mph - N/A   Clear
7:55 AM 41.0 °F 37.1 °F 33.8 °F 76% 30.17 in 10.0 mi SSW 5.8 mph - N/A   Clear
8:15 AM 46.4 °F 45.2 °F 35.6 °F 66% 30.17 in 10.0 mi SSW 3.5 mph - N/A   Clear
8:35 AM 50.0 °F - 35.6 °F 58% 30.17 in 10.0 mi SW 3.5 mph - N/A   Clear
8:55 AM 51.8 °F - 35.6 °F 54% 30.17 in 10.0 mi SW 4.6 mph - N/A   Clear
9:15 AM 53.6 °F - 35.6 °F 51% 30.17 in 10.0 mi Calm Calm - N/A   Clear
9:35 AM 57.2 °F - 35.6 °F 44% 30.16 in 10.0 mi SSW 3.5 mph - N/A   Clear
9:55 AM 62.6 °F - 35.6 °F 37% 30.15 in 10.0 mi SSW 8.1 mph - N/A   Clear
10:15 AM 66.2 °F - 35.6 °F 32% 30.14 in 10.0 mi South 12.7 mph 19.6 mph N/A   Clear
10:35 AM 68.0 °F - 35.6 °F 30% 30.13 in 10.0 mi SW 12.7 mph - N/A   Clear
10:55 AM 69.8 °F - 35.6 °F 28% 30.12 in 10.0 mi SSW 12.7 mph 18.4 mph N/A   Clear
11:15 AM 71.6 °F - 35.6 °F 27% 30.12 in 10.0 mi SSW 15.0 mph - N/A   Clear
11:35 AM 73.4 °F - 35.6 °F 25% 30.10 in 10.0 mi SSW 16.1 mph 21.9 mph N/A   Clear
11:55 AM 73.4 °F - 35.6 °F 25% 30.09 in 10.0 mi SSW 15.0 mph 20.7 mph N/A   Clear
12:15 PM 77.0 °F - 35.6 °F 22% 30.07 in 10.0 mi SSW 16.1 mph 21.9 mph N/A   Clear
12:35 PM 78.8 °F - 35.6 °F 21% 30.05 in 10.0 mi SW 19.6 mph 25.3 mph N/A   Clear
12:55 PM 78.8 °F - 35.6 °F 21% 30.04 in 10.0 mi SW 20.7 mph 26.5 mph N/A   Clear
1:15 PM 78.8 °F - 33.8 °F 20% 30.02 in 10.0 mi SSW 18.4 mph 26.5 mph N/A   Clear
1:35 PM 80.6 °F - 32.0 °F 17% 30.00 in 10.0 mi WSW 18.4 mph 25.3 mph N/A   Clear
1:55 PM 80.6 °F - 32.0 °F 17% 29.99 in 10.0 mi SW 16.1 mph 20.7 mph N/A   Clear
2:15 PM 82.4 °F - 32.0 °F 16% 29.98 in 10.0 mi SW 15.0 mph 21.9 mph N/A   Clear
2:35 PM 82.4 °F - 32.0 °F 16% 29.98 in 10.0 mi SSW 17.3 mph 23.0 mph N/A   Clear
2:55 PM 82.4 °F - 32.0 °F 16% 29.97 in 10.0 mi SSW 16.1 mph 20.7 mph N/A   Clear
3:15 PM 82.4 °F - 33.8 °F 17% 29.96 in 10.0 mi South 20.7 mph 25.3 mph N/A   Clear
3:35 PM 80.6 °F - 35.6 °F 20% 29.96 in 10.0 mi South 23.0 mph 28.8 mph N/A   Clear
3:55 PM 78.8 °F - 35.6 °F 21% 29.95 in 10.0 mi South 23.0 mph 31.1 mph N/A   Clear
4:15 PM 78.8 °F - 35.6 °F 21% 29.95 in 10.0 mi South 20.7 mph 26.5 mph N/A   Clear
4:35 PM 78.8 °F - 35.6 °F 21% 29.95 in 10.0 mi South 19.6 mph 26.5 mph N/A   Clear
4:55 PM 77.0 °F - 35.6 °F 22% 29.95 in 10.0 mi South 15.0 mph 26.5 mph N/A   Clear
5:15 PM 75.2 °F - 35.6 °F 24% 29.95 in 10.0 mi SSE 15.0 mph 20.7 mph N/A   Clear
5:35 PM 73.4 °F - 37.4 °F 27% 29.95 in 10.0 mi SSE 16.1 mph - N/A   Clear
5:55 PM 69.8 °F - 37.4 °F 31% 29.95 in 10.0 mi SSE 15.0 mph - N/A   Clear
6:15 PM 68.0 °F - 37.4 °F 33% 29.95 in 10.0 mi SSE 15.0 mph - N/A   Clear
6:35 PM 68.0 °F - 37.4 °F 33% 29.95 in 10.0 mi SSE 17.3 mph 21.9 mph N/A   Clear
6:55 PM 68.0 °F - 37.4 °F 33% 29.95 in 10.0 mi SSE 18.4 mph 23.0 mph N/A   Clear
7:15 PM 66.2 °F - 37.4 °F 35% 29.95 in 10.0 mi SSE 18.4 mph 26.5 mph N/A   Clear
7:35 PM 66.2 °F - 37.4 °F 35% 29.95 in 10.0 mi SSE 18.4 mph 28.8 mph N/A   Clear
7:55 PM 64.4 °F - 37.4 °F 37% 29.94 in 10.0 mi SSE 20.7 mph 29.9 mph N/A   Clear
8:15 PM 64.4 °F - 35.6 °F 34% 29.94 in 10.0 mi SSE 21.9 mph 27.6 mph N/A   Clear
8:35 PM 62.6 °F - 35.6 °F 37% 29.94 in 10.0 mi SSE 24.2 mph 31.1 mph N/A   Clear
8:55 PM 62.6 °F - 35.6 °F 37% 29.94 in 10.0 mi SSE 25.3 mph 32.2 mph N/A   Clear
9:15 PM 62.6 °F - 35.6 °F 37% 29.94 in 10.0 mi SSE 23.0 mph 29.9 mph N/A   Clear
9:35 PM 62.6 °F - 37.4 °F 39% 29.94 in 10.0 mi SSE 23.0 mph 29.9 mph N/A   Clear
9:55 PM 62.6 °F - 37.4 °F 39% 29.94 in 10.0 mi SSE 24.2 mph 29.9 mph N/A   Clear
10:15 PM 60.8 °F - 37.4 °F 42% 29.94 in 10.0 mi SSE 21.9 mph 31.1 mph N/A   Clear
10:35 PM 60.8 °F - 37.4 °F 42% 29.94 in 10.0 mi South 20.7 mph 32.2 mph N/A   Clear
11:15 PM 60.8 °F - 39.2 °F 45% 29.93 in 10.0 mi South 23.0 mph 29.9 mph N/A   Clear
11:35 PM 60.8 °F - 39.2 °F 45% 29.92 in 10.0 mi South 19.6 mph 27.6 mph N/A   Clear
11:55 PM 60.8 °F - 39.2 °F 45% 29.91 in 10.0 mi South 19.6 mph 25.3 mph N/A   Clear